[[{"header":{"parameterUnit":"m.s-1","parameterCategory":1,"la1":30.2991,"la2":30.254,"lo1":-89.0895,"lo2":-89.0444,"dy":0.0017,"dx":0.0017,"nx":28,"ny":28,"refTime":"2024-06-19T21:00:00:Z","depth":0,"parameterNumber":2,"parameterNumberName":"U-component_of_WINDS"},"data":[0,0,0,0,0,0,0,0,0,0,0,0,0,0,0,0,0,0,0,0,0,0,0,0,0,0,0,0,0,0,0,0,0,0,0,0,0,0,0,0,0,0,0,0,0,0,0,0,0,0,0,0,0,0,0,0,0,0,-6.7979,-6.7978,0,-6.7869,-6.7868,-6.7867,-6.7587,-6.7581,-6.7576,-6.757,-6.7464,-6.7466,-6.7469,0,0,0,0,0,0,0,0,0,0,0,0,0,-6.7952,-6.7954,-6.7979,-6.7978,-6.7976,-6.7869,-6.7868,-6.7866,-6.7588,-6.7581,-6.7574,-6.7567,-6.7463,-6.7466,-6.7469,0,0,0,0,0,0,0,0,0,0,0,0,0,-6.7916,-6.7955,-6.7979,-6.7825,-6.781,-6.787,-6.7868,-6.7866,-6.759,-6.7581,-6.7572,-6.7564,-6.7462,-6.7466,-6.747,-6.7673,0,0,-6.7482,-6.7484,0,0,0,0,0,0,0,0,-6.7918,-6.7917,-6.7849,-6.7835,-6.7819,-6.7733,-6.7819,-6.7801,-6.7592,-6.7674,-6.757,-6.756,-6.7561,-6.7556,-6.7555,-6.7668,-6.7663,-6.7482,-6.7485,-6.7487,-6.7488,0,0,0,0,0,0,0,-6.7921,-6.792,-6.7936,-6.7848,-6.783,-6.7762,-6.7747,-6.7814,-6.7669,-6.7666,-6.7645,-6.7636,-6.7551,-6.7552,-6.7551,-6.7661,-6.7482,-6.7486,-6.7488,-6.749,-6.7931,-6.794,0,0,0,0,0,0,-6.7945,-6.7924,-6.7939,-6.7932,-6.7847,-6.777,-6.7753,-6.7769,-6.7667,-6.7643,-6.7644,-6.7623,-6.7549,-6.7546,-6.7546,-6.7773,-6.7486,-6.749,-6.7493,-6.7922,-6.7933,-6.7943,0,0,0,0,0,0,-6.7946,-6.7949,-6.7943,-6.7923,-6.7917,-6.778,-6.7801,-6.7772,-6.7772,-6.765,-6.7623,-6.7671,-6.7542,-6.754,-6.7642,-6.7766,-6.7492,-6.7496,-6.7911,-6.7925,-6.7938,-6.8232,0,0,0,0,0,0,-6.7946,-6.7951,-6.8026,-6.7926,-6.7919,-6.8041,-6.7808,-6.7776,-6.7779,-6.7752,-6.7669,-6.7647,-6.7535,-6.7637,-6.7646,-6.7766,-6.7499,-6.7899,-6.7917,-6.7933,-6.8211,-6.8255,-6.8292,0,0,0,0,0,-6.7946,-6.8116,-6.8031,-6.8035,-6.8009,-6.8049,-6.8044,-6.7911,-6.7791,-6.7865,-6.7786,-6.7649,-6.7752,-6.765,-6.7657,-6.7781,-6.789,-6.7912,-6.7932,-6.8193,-6.8246,-6.8291,0,0,0,0,0,0,-6.8236,-6.81,-6.8005,-6.8147,-6.8111,-6.8002,-6.8091,-6.7973,-6.7972,-6.7947,-6.7783,-6.7767,-6.789,-6.7846,-6.7735,-6.797,-6.7798,-6.7822,-6.7994,-6.8044,-6.8084,-6.8091,-6.7502,0,0,0,0,0,-6.8317,-6.8358,-6.8237,-6.8374,-6.8361,-6.823,-6.8242,-6.8142,-6.81,-6.8084,-6.8012,-6.7978,-6.8001,-6.802,-6.8036,-6.8204,-6.818,-6.8292,-6.8333,-6.8367,-6.8388,-6.8471,-6.8518,-6.8012,-6.8011,-6.8011,0,0,-6.8483,-6.8414,-6.845,-6.8431,-6.8391,-6.8438,-6.8219,-6.828,-6.8313,-6.8094,-6.8183,-6.813,-6.8081,-6.8216,-6.8272,-6.8182,-6.8523,-6.8394,-6.8422,-6.8424,-6.8497,-6.8545,-6.8588,-6.8026,-6.8023,-6.8021,0,0,-6.881,-6.8763,-6.8869,-6.8833,-6.8775,-6.8687,-6.8713,-6.8621,-6.8576,-6.8663,-6.8498,-6.8537,-6.8583,-6.8552,-6.8544,-6.8858,-6.8731,-6.8868,-6.9079,-6.9161,-6.9201,-6.9235,-6.9345,-6.9386,-6.889,-6.8891,-6.8891,0,-6.9024,-6.9087,-6.894,-6.9009,-6.9004,-6.8806,-6.8912,-6.8886,-6.8838,-6.884,-6.874,-6.879,-6.8743,-6.8866,-6.8943,-6.8944,-6.8967,-6.8875,-6.9207,-6.924,-6.927,-6.9372,-6.9414,-6.8908,-6.8906,-6.8904,-6.8902,0,-6.9352,-6.9399,-6.9492,-6.9446,-6.9453,-6.9542,-6.9408,-6.9433,-6.9333,-6.9255,-6.9346,-6.9282,-6.9279,-6.9302,-6.9206,-6.9412,-6.9358,-6.9236,-6.9059,-6.9338,-6.943,-6.9469,-6.8932,-6.8926,-6.8921,-6.8916,0,0,-6.9858,-6.9728,-6.9764,-6.974,-6.9661,-6.9694,-6.9774,-6.9768,-6.9791,-6.9765,-6.9826,-6.9868,-6.9753,-6.9744,-6.9643,-6.9716,-6.9965,-6.9584,-6.958,-6.9654,-7.0184,-7.0274,-7.0322,-6.9881,-6.9888,-6.9894,-7.0187,0,-7.0162,-7.0287,-7.0156,-7.0308,-7.0348,-7.0159,-7.0228,-7.0188,-7.0118,-7.0142,-7.0065,-7.0096,-6.9944,-6.9936,-7.0,-6.9921,-7.0069,-6.9899,-6.9936,-6.9939,-6.9951,-7.0371,-7.0467,-7.0747,-7.0223,-7.0229,-7.0233,0,-7.0534,-7.0521,-7.0677,-7.0584,-7.0596,-7.066,-7.0643,-7.0669,-7.0619,-7.0563,-7.0552,-7.0428,-7.05,-7.033,-7.0426,-7.0313,-7.0321,-7.0285,-7.0293,-7.0289,-7.0101,-7.0376,-7.0833,-7.0874,-7.029,-7.0285,-7.0281,0,-7.0883,-7.0905,-7.0999,-7.0985,-7.0881,-7.093,-7.0889,-7.083,-7.0835,-7.0821,-7.0822,-7.0819,-7.0817,-7.0818,-7.0697,-7.0585,-7.0807,-7.0628,-7.0762,-7.0765,-7.0815,-7.0813,-7.1277,-7.0826,-7.0826,-7.0825,-7.0824,0,-7.1234,-7.1336,-7.1154,-7.1212,-7.132,-7.1169,-7.1281,-7.1222,-7.1171,-7.1214,-7.1053,-7.1098,-7.0937,-7.0965,-7.0872,-7.0964,-7.0966,-7.0922,-7.0895,-7.0934,-7.0939,-7.0935,-7.0911,-7.0836,-7.0833,-7.0831,-7.0829,0,-7.1641,-7.1524,-7.1613,-7.1507,-7.1482,-7.1567,-7.1475,-7.1525,-7.1444,-7.1501,-7.1506,-7.138,-7.1404,-7.1284,-7.1289,-7.1226,-7.1363,-7.1306,-7.138,-7.136,-7.1499,-7.1487,-7.1975,-7.203,-7.1548,-7.1553,-7.1557,0,-7.1872,-7.1945,-7.1845,-7.1861,-7.1828,-7.1857,-7.1859,-7.1715,-7.1724,-7.1672,-7.1728,-7.1738,-7.1738,-7.1787,-7.1696,-7.1698,-7.1637,-7.1808,-7.1636,-7.1673,-7.1636,-7.1632,-7.1637,-7.1843,-7.1849,-7.1854,-7.1858,0,-7.2293,-7.223,-7.2238,-7.2227,-7.2233,-7.2218,-7.2192,-7.2216,-7.2058,-7.2078,-7.2099,-7.2099,-7.2101,-7.2114,-7.2097,-7.2056,-7.1932,-7.1913,-7.1943,-7.1983,-7.2021,-7.1999,-7.1474,-7.1902,-7.1897,-7.1894,-7.1892,-7.189,-7.2615,-7.267,-7.2607,-7.2622,-7.2586,-7.2565,-7.2605,-7.2528,-7.2542,-7.2531,-7.2445,-7.2483,-7.2429,-7.2393,-7.2365,-7.2392,-7.2311,-7.2356,-7.2367,-7.238,-7.2402,-7.2019,-7.2389,-7.2388,-7.2386,-7.2385,-7.2384,0,-7.3024,-7.2974,-7.2989,-7.2955,-7.2967,-7.2847,-7.2812,-7.2829,-7.2863,-7.2823,-7.2826,-7.285,-7.286,-7.277,-7.2769,-7.2808,-7.2751,-7.2813,-7.2807,-7.2799,-7.2477,-7.2449,-7.2859,-7.2859,-7.2859,-7.2858,-7.2858,-7.2858,-7.3238,-7.3323,-7.3254,-7.332,-7.3268,-7.3301,-7.3291,-7.3271,-7.3237,-7.327,-7.3277,-7.3217,-7.3157,-7.315,-7.3154,-7.3127,-7.3133,-7.3214,-7.3168,-7.2868,-7.2822,-7.2778,-7.2751,-7.3217,-7.3218,-7.3487,-7.349,-7.3492]},{"header":{"parameterUnit":"m.s-1","parameterCategory":1,"la1":30.2991,"la2":30.254,"lo1":-89.0895,"lo2":-89.0444,"dy":0.0017,"dx":0.0017,"nx":28,"ny":28,"refTime":"2024-06-19T21:00:00:Z","depth":0,"parameterNumber":3,"parameterNumberName":"V-component_of_WINDS"},"data":[0,0,0,0,0,0,0,0,0,0,0,0,0,0,0,0,0,0,0,0,0,0,0,0,0,0,0,0,0,0,0,0,0,0,0,0,0,0,0,0,0,0,0,0,0,0,0,0,0,0,0,0,0,0,0,0,0,0,0.0351,0.035,0,0.0252,0.0251,0.025,0.0145,0.0144,0.0142,0.0141,0.0041,0.004,0.0039,0,0,0,0,0,0,0,0,0,0,0,0,0,0.0454,0.0453,0.0351,0.035,0.0349,0.0252,0.0251,0.0249,0.0145,0.0144,0.0142,0.014,0.0041,0.004,0.0038,0,0,0,0,0,0,0,0,0,0,0,0,0,0.0388,0.0452,0.0352,0.0285,0.0278,0.0252,0.0251,0.0249,0.0146,0.0144,0.0141,0.0139,0.0042,0.004,0.0038,0.007,0,0,0.0032,0.0031,0,0,0,0,0,0,0,0,0.0392,0.0384,0.0296,0.029,0.0282,0.0209,0.025,0.0189,0.0146,0.0196,0.0141,0.0138,0.0099,0.0092,0.0078,0.0066,0.0061,0.0032,0.0031,0.003,0.003,0,0,0,0,0,0,0,0.0396,0.0388,0.0312,0.0295,0.0286,0.0261,0.025,0.0238,0.0161,0.0192,0.0184,0.0173,0.0094,0.008,0.0075,0.006,0.0032,0.003,0.0029,0.0028,0.007,0.0072,0,0,0,0,0,0,0.0411,0.0392,0.0315,0.0309,0.0332,0.0261,0.0248,0.0234,0.0161,0.0147,0.0175,0.0169,0.0085,0.0077,0.0071,0.0105,0.003,0.0028,0.0027,0.0068,0.007,0.0073,0,0,0,0,0,0,0.0413,0.0405,0.0319,0.0348,0.0336,0.0262,0.0247,0.0234,0.0219,0.0148,0.0134,0.0175,0.0083,0.0074,0.0071,0.01,0.0027,0.0026,0.0065,0.0068,0.0072,0.0172,0,0,0,0,0,0,0.0417,0.0406,0.0417,0.0349,0.0335,0.0321,0.0249,0.0233,0.0216,0.0207,0.0144,0.0132,0.008,0.0075,0.007,0.0096,0.0024,0.0062,0.0067,0.0071,0.0166,0.0178,0.0189,0,0,0,0,0,0.0421,0.0449,0.0418,0.0409,0.0346,0.0322,0.0314,0.0253,0.0219,0.0229,0.0184,0.0134,0.0098,0.0075,0.0069,0.0095,0.006,0.0065,0.007,0.016,0.0176,0.0189,0,0,0,0,0,0,0.0522,0.0439,0.0404,0.0411,0.0375,0.0305,0.0316,0.0271,0.0244,0.0237,0.0163,0.015,0.0156,0.0125,0.0102,0.0123,0.0072,0.0076,0.0143,0.0157,0.0168,0.0176,0.0023,0,0,0,0,0,0.0545,0.0532,0.046,0.0474,0.0458,0.0391,0.0378,0.0334,0.0294,0.0278,0.0232,0.0196,0.0176,0.0164,0.0142,0.0161,0.0146,0.0175,0.0187,0.0197,0.0201,0.021,0.0222,0.009,0.0089,0.0089,0,0,0.0593,0.0546,0.0542,0.0493,0.046,0.0449,0.0378,0.0369,0.0361,0.0277,0.0271,0.0237,0.0191,0.02,0.0201,0.0174,0.0235,0.0203,0.0212,0.0211,0.0217,0.0229,0.0241,0.0093,0.0092,0.0092,0,0,0.0675,0.0638,0.0645,0.0614,0.0564,0.0519,0.0522,0.0459,0.0432,0.0426,0.0363,0.0353,0.032,0.029,0.0271,0.0343,0.0297,0.0338,0.0399,0.0409,0.0419,0.0428,0.0455,0.0466,0.0343,0.0343,0.0343,0,0.0741,0.0721,0.0655,0.065,0.0631,0.0555,0.0563,0.0535,0.0482,0.0471,0.0441,0.0399,0.0363,0.0364,0.0382,0.0368,0.0369,0.0345,0.0423,0.0431,0.0439,0.0464,0.0474,0.0349,0.0348,0.0347,0.0347,0,0.0805,0.0793,0.0805,0.0755,0.0737,0.0739,0.0675,0.0665,0.0623,0.0582,0.0578,0.0532,0.05,0.0497,0.0456,0.0493,0.0477,0.0436,0.0384,0.0458,0.048,0.0489,0.0356,0.0354,0.0353,0.0351,0,0,0.0948,0.0862,0.0867,0.0844,0.0785,0.0774,0.0773,0.0741,0.0735,0.0701,0.0699,0.0674,0.0636,0.0614,0.0569,0.0578,0.064,0.0536,0.0533,0.0557,0.0679,0.0711,0.0723,0.0608,0.061,0.0611,0.0683,0,0.1019,0.1012,0.0954,0.0964,0.0952,0.088,0.0879,0.0844,0.0806,0.0791,0.0749,0.0733,0.0683,0.067,0.0675,0.0631,0.0663,0.0625,0.0607,0.0607,0.0621,0.0734,0.0767,0.0837,0.0691,0.0692,0.0693,0,0.1102,0.1073,0.1082,0.1023,0.1016,0.1017,0.0984,0.097,0.0929,0.0901,0.0877,0.0827,0.0824,0.0774,0.0769,0.0744,0.0734,0.0711,0.0712,0.0709,0.0655,0.0734,0.0857,0.0869,0.0706,0.0705,0.0704,0,0.1206,0.1169,0.117,0.1153,0.1084,0.1086,0.1058,0.1014,0.0999,0.0971,0.096,0.0932,0.0917,0.0897,0.0841,0.081,0.0843,0.0788,0.082,0.0822,0.083,0.0831,0.0955,0.0823,0.0823,0.0822,0.0822,0,0.1293,0.1302,0.1216,0.1217,0.1225,0.1158,0.1169,0.1133,0.1095,0.1089,0.1025,0.102,0.0946,0.0934,0.089,0.0893,0.0887,0.0865,0.0853,0.0871,0.0874,0.0863,0.0857,0.0825,0.0825,0.0824,0.0824,0,0.1411,0.1354,0.135,0.1286,0.127,0.1279,0.1224,0.1223,0.1181,0.1174,0.1169,0.1104,0.1086,0.1028,0.0996,0.0967,0.0983,0.0961,0.0998,0.099,0.1026,0.1024,0.1148,0.1161,0.1021,0.1022,0.1023,0,0.147,0.1475,0.1411,0.1402,0.1377,0.1363,0.1347,0.1282,0.1269,0.1223,0.1228,0.1205,0.1183,0.1158,0.1109,0.1084,0.1061,0.1106,0.1057,0.1075,0.1063,0.1064,0.1064,0.1117,0.1119,0.1121,0.1122,0,0.1582,0.1554,0.1533,0.1504,0.1488,0.1462,0.1432,0.1428,0.1356,0.1345,0.1326,0.1309,0.1276,0.1255,0.1222,0.1194,0.1147,0.1138,0.1144,0.1162,0.1184,0.1174,0.1028,0.1135,0.1134,0.1133,0.1132,0.1132,0.1672,0.1674,0.163,0.161,0.1581,0.1555,0.1551,0.1509,0.1492,0.146,0.1423,0.1409,0.1369,0.132,0.1296,0.1284,0.1258,0.1267,0.127,0.1273,0.1282,0.1185,0.1278,0.1278,0.1277,0.1277,0.1277,0,0.1781,0.175,0.1732,0.1693,0.1678,0.1634,0.16,0.159,0.1578,0.1544,0.1524,0.1503,0.1483,0.1432,0.1407,0.1408,0.1385,0.1403,0.1403,0.1397,0.1306,0.1304,0.1422,0.1422,0.1422,0.1422,0.1422,0.1422,0.1837,0.1837,0.1805,0.1791,0.1759,0.1744,0.1729,0.1705,0.1678,0.1657,0.1639,0.1606,0.1566,0.1538,0.1517,0.1503,0.1497,0.1523,0.1502,0.1417,0.1404,0.139,0.1388,0.1522,0.1522,0.1594,0.1594,0.1595]}]]